Total_Precipitation_Accumulation
0.45 0.46 0.46 0.46 0.71 0.86 0.87 0.98 0.93 0.83 0.52 0.36 0.23 0.16 0.14 0.13 0.13 0.16 0.16 0.19 0.23 0.28 0.34 0.29 0.32 0.29 0.24 0.24 0.26 0.29 0.30 0.28 0.29 0.28 0.24 0.20 0.20 0.20 0.16 0.15 0.19 0.23 0.27
0.35 0.26 0.19 0.29 0.32 0.39 0.45 0.47 0.49 0.41 0.25 0.17 0.15 0.13 0.11 0.08 0.07 0.07 0.09 0.09 0.12 0.17 0.23 0.30 0.25 0.25 0.25 0.25 0.24 0.26 0.25 0.22 0.24 0.27 0.24 0.16 0.14 0.16 0.11 0.18 0.19 0.20 0.31
0.16 0.08 0.05 0.09 0.26 0.45 0.40 0.25 0.25 0.20 0.13 0.10 0.10 0.10 0.10 0.10 0.09 0.08 0.07 0.08 0.07 0.09 0.14 0.21 0.24 0.27 0.24 0.27 0.32 0.30 0.27 0.21 0.19 0.24 0.29 0.21 0.14 0.16 0.17 0.21 0.22 0.24 0.33
0.04 0.03 0.03 0.05 0.14 0.26 0.26 0.21 0.20 0.20 0.12 0.09 0.08 0.07 0.07 0.08 0.08 0.07 0.06 0.07 0.06 0.07 0.08 0.10 0.15 0.22 0.26 0.33 0.26 0.29 0.30 0.25 0.18 0.19 0.21 0.20 0.20 0.20 0.20 0.24 0.24 0.28 0.33
0.01 0.00 0.01 0.01 0.02 0.05 0.11 0.15 0.24 0.28 0.20 0.14 0.10 0.09 0.07 0.06 0.06 0.07 0.07 0.08 0.10 0.11 0.12 0.12 0.11 0.12 0.19 0.26 0.29 0.35 0.32 0.32 0.27 0.21 0.19 0.20 0.18 0.18 0.16 0.17 0.22 0.23 0.19
0.01 0.01 0.00 0.00 0.01 0.04 0.06 0.09 0.18 0.25 0.20 0.16 0.14 0.15 0.15 0.13 0.12 0.11 0.11 0.14 0.17 0.19 0.19 0.20 0.20 0.19 0.17 0.17 0.19 0.24 0.30 0.35 0.36 0.28 0.22 0.23 0.21 0.16 0.14 0.10 0.11 0.18 0.14
0.01 0.01 0.01 0.01 0.01 0.03 0.03 0.04 0.07 0.12 0.12 0.10 0.10 0.15 0.23 0.29 0.30 0.25 0.22 0.20 0.21 0.23 0.23 0.22 0.24 0.27 0.27 0.25 0.20 0.16 0.20 0.28 0.33 0.30 0.27 0.23 0.18 0.18 0.20 0.15 0.09 0.09 0.09
0.01 0.01 0.01 0.01 0.01 0.01 0.01 0.01 0.01 0.02 0.03 0.04 0.05 0.07 0.11 0.18 0.26 0.31 0.30 0.30 0.32 0.27 0.23 0.21 0.22 0.26 0.30 0.31 0.28 0.22 0.20 0.22 0.26 0.29 0.34 0.29 0.15 0.15 0.20 0.20 0.20 0.16 0.12
0.00 0.00 0.00 0.00 0.00 0.00 0.00 0.00 0.00 0.00 0.00 0.00 0.01 0.01 0.02 0.04 0.06 0.10 0.14 0.21 0.31 0.30 0.24 0.20 0.19 0.22 0.25 0.30 0.31 0.30 0.29 0.26 0.24 0.28 0.35 0.33 0.24 0.17 0.15 0.20 0.26 0.29 0.23
0.00 0.00 0.00 0.00 0.00 0.00 0.00 0.00 0.00 0.00 0.00 0.00 0.00 0.00 0.01 0.01 0.02 0.03 0.04 0.06 0.11 0.15 0.15 0.15 0.15 0.17 0.19 0.23 0.28 0.34 0.39 0.41 0.38 0.33 0.35 0.36 0.35 0.32 0.24 0.23 0.26 0.30 0.30
0.00 0.00 0.00 0.00 0.00 0.00 0.00 0.00 0.00 0.00 0.00 0.00 0.00 0.00 0.00 0.00 0.00 0.01 0.01 0.02 0.02 0.03 0.04 0.06 0.08 0.10 0.12 0.15 0.20 0.27 0.38 0.51 0.59 0.57 0.50 0.44 0.44 0.43 0.37 0.33 0.30 0.30 0.33
0.00 0.00 0.00 0.00 0.00 0.00 0.00 0.00 0.00 0.00 0.00 0.00 0.00 0.00 0.00 0.00 0.00 0.00 0.00 0.00 0.01 0.01 0.01 0.02 0.02 0.03 0.04 0.07 0.11 0.17 0.24 0.36 0.53 0.68 0.72 0.63 0.56 0.51 0.43 0.39 0.36 0.35 0.38
0.00 0.00 0.00 0.00 0.00 0.00 0.00 0.00 0.00 0.00 0.00 0.00 0.00 0.00 0.00 0.00 0.00 0.00 0.00 0.01 0.01 0.01 0.01 0.02 0.02 0.03 0.04 0.06 0.07 0.09 0.11 0.17 0.27 0.44 0.65 0.74 0.71 0.59 0.51 0.45 0.40 0.39 0.40
0.00 0.00 0.00 0.00 0.00 0.00 0.00 0.00 0.00 0.00 0.00 0.00 0.00 0.01 0.01 0.01 0.01 0.01 0.01 0.01 0.02 0.02 0.02 0.03 0.03 0.04 0.04 0.05 0.08 0.09 0.10 0.12 0.14 0.21 0.34 0.52 0.69 0.68 0.60 0.51 0.45 0.45 0.47
0.00 0.00 0.00 0.00 0.00 0.00 0.00 0.00 0.00 0.00 0.00 0.02 0.01 0.01 0.01 0.01 0.01 0.01 0.02 0.03 0.03 0.03 0.05 0.06 0.07 0.07 0.07 0.05 0.07 0.13 0.14 0.16 0.16 0.15 0.17 0.23 0.38 0.53 0.60 0.54 0.50 0.49 0.50
0.00 0.00 0.00 0.00 0.00 0.00 0.00 0.00 0.00 0.00 0.01 0.01 0.01 0.01 0.02 0.03 0.04 0.04 0.05 0.06 0.07 0.09 0.11 0.11 0.12 0.12 0.08 0.06 0.07 0.10 0.15 0.23 0.28 0.25 0.23 0.19 0.18 0.26 0.38 0.46 0.49 0.49 0.47
0.00 0.00 0.00 0.00 0.00 0.00 0.00 0.00 0.00 0.01 0.01 0.01 0.01 0.02 0.03 0.04 0.06 0.08 0.11 0.12 0.12 0.14 0.16 0.16 0.16 0.16 0.16 0.13 0.10 0.07 0.14 0.23 0.31 0.37 0.37 0.23 0.13 0.18 0.25 0.32 0.38 0.40 0.38
0.00 0.00 0.00 0.00 0.00 0.00 0.00 0.00 0.01 0.01 0.01 0.01 0.02 0.03 0.05 0.07 0.10 0.12 0.14 0.17 0.20 0.20 0.21 0.20 0.20 0.22 0.20 0.17 0.12 0.10 0.17 0.24 0.25 0.33 0.41 0.35 0.29 0.28 0.32 0.32 0.31 0.31 0.30
0.00 0.00 0.00 0.00 0.00 0.01 0.01 0.01 0.01 0.02 0.02 0.03 0.04 0.06 0.09 0.11 0.13 0.15 0.17 0.22 0.25 0.23 0.21 0.21 0.24 0.27 0.27 0.23 0.15 0.13 0.23 0.30 0.28 0.30 0.35 0.40 0.39 0.31 0.25 0.30 0.27 0.25 0.26
0.00 0.00 0.00 0.00 0.01 0.02 0.02 0.02 0.03 0.04 0.06 0.07 0.08 0.10 0.13 0.15 0.16 0.17 0.20 0.23 0.26 0.26 0.24 0.22 0.26 0.30 0.32 0.29 0.16 0.13 0.24 0.33 0.33 0.37 0.43 0.46 0.42 0.31 0.21 0.27 0.31 0.25 0.23
0.00 0.00 0.00 0.00 0.01 0.02 0.04 0.05 0.06 0.08 0.07 0.08 0.10 0.11 0.12 0.15 0.15 0.18 0.20 0.22 0.24 0.24 0.24 0.24 0.28 0.32 0.32 0.27 0.15 0.12 0.22 0.30 0.35 0.34 0.37 0.47 0.42 0.33 0.22 0.25 0.29 0.24 0.25
0.00 0.00 0.00 0.01 0.02 0.04 0.06 0.07 0.07 0.06 0.06 0.07 0.09 0.10 0.11 0.13 0.15 0.21 0.23 0.24 0.25 0.24 0.23 0.24 0.26 0.31 0.35 0.27 0.18 0.09 0.13 0.24 0.33 0.44 0.47 0.54 0.51 0.40 0.32 0.28 0.27 0.21 0.19
0.00 0.00 0.01 0.02 0.03 0.05 0.07 0.10 0.10 0.08 0.09 0.09 0.10 0.11 0.13 0.17 0.21 0.27 0.29 0.30 0.31 0.31 0.28 0.26 0.23 0.25 0.33 0.31 0.14 0.08 0.07 0.15 0.29 0.51 0.65 0.69 0.65 0.55 0.46 0.39 0.36 0.27 0.22
0.00 0.01 0.02 0.03 0.04 0.06 0.08 0.11 0.13 0.14 0.14 0.14 0.13 0.14 0.15 0.16 0.19 0.26 0.29 0.31 0.32 0.31 0.28 0.26 0.26 0.27 0.32 0.34 0.27 0.20 0.12 0.12 0.21 0.42 0.62 0.75 0.81 0.77 0.66 0.57 0.51 0.37 0.30
0.01 0.02 0.03 0.05 0.05 0.06 0.08 0.10 0.12 0.16 0.18 0.17 0.15 0.14 0.12 0.12 0.16 0.21 0.23 0.20 0.23 0.19 0.17 0.19 0.22 0.24 0.26 0.21 0.13 0.14 0.15 0.15 0.19 0.34 0.62 0.83 0.98 1.01 0.99 0.86 0.76 0.63 0.50
0.02 0.03 0.04 0.04 0.05 0.05 0.06 0.06 0.08 0.14 0.20 0.21 0.18 0.15 0.13 0.14 0.16 0.18 0.20 0.19 0.15 0.13 0.13 0.14 0.11 0.08 0.08 0.05 0.03 0.03 0.05 0.07 0.12 0.31 0.59 0.82 0.99 1.05 1.15 1.14 1.04 0.87 0.69